Location: Columbia
(38.9520°N, 92.3340°W)
Time: 19:32:17
(UTC-05:00)

Iridium 15 - Visible Passes

Search period start: 27 March 2015 00:00
Search period end: 06 April 2015 00:00
Orbit: 776 x 779 km, 86.4° (Epoch: 26 March)

Date Brightness Start Highest point End Pass type
(mag) Time Alt. Az. Time Alt. Az. Time Alt. Az.
03 Apr 8.9 00:15:04 10° N 00:15:26 12° N 00:15:26 12° N visible
03 Apr 8.7 23:41:32 10° N 23:42:08 13° N 23:42:08 13° N visible
04 Apr 8.6 23:08:21 10° NNE 23:08:51 12° NNE 23:08:51 12° NNE visible
